| time (UTC) | temp C | wind direction | speed KPH | gust KPH | rain 1hr cm | rain 24hr cm | rain mn cm | humidity % | barometer mb |
| 20260906121506 | 21 | 51 | 0.0 | 1.6 | 0.00 | 0.00 | 0.00 | 92 | 1017.1 |
| 20260906121006 | 21 | 51 | 0.0 | 1.6 | 0.00 | 0.00 | 0.00 | 93 | 1017.0 |
| 20260906120506 | 21 | 51 | 0.0 | 1.6 | 0.00 | 0.00 | 0.00 | 93 | 1017.0 |
| 20260906120006 | 21 | 51 | 0.0 | 1.6 | 0.00 | 0.00 | 0.00 | 93 | 1016.6 |
| 20260906115506 | 21 | 51 | 0.0 | 1.6 | 0.00 | 0.00 | 0.00 | 93 | 1016.6 |
| 20260906115007 | 20 | 51 | 0.0 | 1.6 | 0.00 | 0.00 | 0.00 | 93 | 1016.6 |
| 20260906114506 | 20 | 51 | 0.0 | 1.6 | 0.00 | 0.00 | 0.00 | 93 | 1016.6 |
| 20260906114007 | 20 | 51 | 0.0 | 1.6 | 0.00 | 0.00 | 0.00 | 92 | 1016.5 |
| 20260906113506 | 20 | 51 | 0.0 | 0.0 | 0.00 | 0.00 | 0.00 | 92 | 1016.5 |
| 20260906113006 | 20 | 51 | 0.0 | 0.0 | 0.00 | 0.00 | 0.00 | 92 | 1016.5 |
| 20260906112517 | 20 | 51 | 0.0 | 0.0 | 0.00 | 0.00 | 0.00 | 92 | 1016.3 |
| 20260906112007 | 21 | 51 | 0.0 | 0.0 | 0.00 | 0.00 | 0.00 | 92 | 1016.3 |
| 20260906111506 | 21 | 51 | 0.0 | 0.0 | 0.00 | 0.00 | 0.00 | 92 | 1016.2 |
| 20260906111007 | 21 | 51 | 0.0 | 1.6 | 0.00 | 0.00 | 0.00 | 92 | 1016.1 |
| 20260906110507 | 21 | 51 | 0.0 | 1.6 | 0.00 | 0.00 | 0.00 | 92 | 1016.1 |
| 20260906110006 | 21 | 51 | 0.0 | 1.6 | 0.00 | 0.00 | 0.00 | 92 | 1016.1 |
| 20260906105506 | 21 | 51 | 0.0 | 1.6 | 0.00 | 0.00 | 0.00 | 92 | 1016.1 |
| 20260906105006 | 21 | 51 | 0.0 | 1.6 | 0.00 | 0.00 | 0.00 | 92 | 1015.8 |
| 20260906104506 | 21 | 51 | 0.0 | 1.6 | 0.00 | 0.00 | 0.00 | 92 | 1015.8 |
| 20260906104006 | 21 | 51 | 0.0 | 1.6 | 0.00 | 0.00 | 0.00 | 93 | 1015.8 |
| 20260906103506 | 21 | 51 | 0.0 | 0.0 | 0.00 | 0.00 | 0.00 | 93 | 1015.7 |
| 20260906103006 | 21 | 51 | 0.0 | 1.6 | 0.00 | 0.00 | 0.00 | 93 | 1015.7 |
| 20260906102507 | 21 | 51 | 0.0 | 1.6 | 0.00 | 0.00 | 0.00 | 93 | 1015.7 |
| 20260906102006 | 21 | 51 | 0.0 | 1.6 | 0.00 | 0.00 | 0.00 | 92 | 1015.6 |
| 20260906101506 | 21 | 51 | 0.0 | 1.6 | 0.00 | 0.00 | 0.00 | 93 | 1015.6 |
| 20260906101007 | 21 | 51 | 0.0 | 1.6 | 0.00 | 0.00 | 0.00 | 92 | 1015.6 |
| 20260906100507 | 21 | 51 | 0.0 | 0.0 | 0.00 | 0.00 | 0.00 | 92 | 1015.7 |
| 20260906100007 | 21 | 51 | 0.0 | 3.2 | 0.00 | 0.00 | 0.00 | 92 | 1015.4 |
| 20260906095506 | 21 | 51 | 0.0 | 3.2 | 0.00 | 0.00 | 0.00 | 92 | 1015.4 |
| 20260906095006 | 21 | 51 | 0.0 | 0.0 | 0.00 | 0.00 | 0.00 | 92 | 1015.4 |
| 20260906094506 | 21 | 51 | 0.0 | 0.0 | 0.00 | 0.00 | 0.00 | 93 | 1015.4 |
| 20260906094006 | 21 | 51 | 0.0 | 1.6 | 0.00 | 0.00 | 0.00 | 91 | 1015.4 |
| 20260906093506 | 21 | 51 | 0.0 | 1.6 | 0.00 | 0.00 | 0.00 | 91 | 1015.4 |
| 20260906093006 | 21 | 51 | 0.0 | 1.6 | 0.00 | 0.00 | 0.00 | 91 | 1015.4 |
| 20260906092506 | 21 | 51 | 0.0 | 0.0 | 0.00 | 0.00 | 0.00 | 91 | 1015.4 |
| 20260906092007 | 21 | 51 | 0.0 | 0.0 | 0.00 | 0.00 | 0.00 | 90 | 1015.4 |
| 20260906091506 | 21 | 51 | 0.0 | 0.0 | 0.00 | 0.00 | 0.00 | 90 | 1015.3 |
| 20260906091006 | 21 | 51 | 0.0 | 0.0 | 0.00 | 0.00 | 0.00 | 90 | 1015.3 |
| 20260906090507 | 21 | 51 | 0.0 | 1.6 | 0.00 | 0.00 | 0.00 | 90 | 1015.3 |
| 20260906090007 | 21 | 51 | 0.0 | 1.6 | 0.00 | 0.00 | 0.00 | 90 | 1015.3 |
| 20260906085506 | 21 | 51 | 0.0 | 1.6 | 0.00 | 0.00 | 0.00 | 89 | 1015.3 |
| 20260906085007 | 21 | 51 | 0.0 | 1.6 | 0.00 | 0.00 | 0.00 | 89 | 1015.3 |
| 20260906084506 | 21 | 51 | 0.0 | 1.6 | 0.00 | 0.00 | 0.00 | 89 | 1015.3 |
| 20260906084006 | 21 | 51 | 0.0 | 3.2 | 0.00 | 0.00 | 0.00 | 89 | 1015.3 |
| 20260906083506 | 21 | 51 | 0.0 | 3.2 | 0.00 | 0.00 | 0.00 | 89 | 1015.3 |
| 20260906083007 | 22 | 51 | 0.0 | 3.2 | 0.00 | 0.00 | 0.00 | 89 | 1015.3 |
| 20260906082506 | 22 | 51 | 0.0 | 3.2 | 0.00 | 0.00 | 0.00 | 89 | 1015.3 |
| 20260906082006 | 22 | 51 | 0.0 | 4.8 | 0.00 | 0.00 | 0.00 | 89 | 1015.3 |
| 20260906081506 | 22 | 51 | 1.6 | 4.8 | 0.00 | 0.00 | 0.00 | 89 | 1015.3 |
| 20260906081006 | 22 | 51 | 1.6 | 3.2 | 0.00 | 0.00 | 0.00 | 89 | 1015.4 |
| 20260906080506 | 22 | 51 | 0.0 | 3.2 | 0.00 | 0.00 | 0.00 | 89 | 1015.4 |
| 20260906080006 | 22 | 51 | 1.6 | 3.2 | 0.00 | 0.00 | 0.00 | 89 | 1015.4 |
| 20260906075507 | 22 | 51 | 0.0 | 3.2 | 0.00 | 0.00 | 0.00 | 88 | 1015.5 |
| 20260906075006 | 22 | 51 | 0.0 | 3.2 | 0.00 | 0.00 | 0.00 | 88 | 1015.6 |
| 20260906074506 | 22 | 51 | 1.6 | 3.2 | 0.00 | 0.00 | 0.00 | 88 | 1015.6 |
| 20260906074006 | 22 | 51 | 0.0 | 3.2 | 0.00 | 0.00 | 0.00 | 88 | 1015.6 |
| 20260906073506 | 22 | 51 | 0.0 | 1.6 | 0.00 | 0.00 | 0.00 | 88 | 1015.6 |
| 20260906073006 | 22 | 51 | 0.0 | 1.6 | 0.00 | 0.00 | 0.00 | 88 | 1015.5 |
| 20260906072506 | 22 | 51 | 0.0 | 4.8 | 0.00 | 0.00 | 0.00 | 87 | 1015.5 |
| 20260906072006 | 22 | 51 | 1.6 | 4.8 | 0.00 | 0.00 | 0.00 | 87 | 1015.5 |
| 20260906071515 | 22 | 51 | 1.6 | 3.2 | 0.00 | 0.00 | 0.00 | 87 | 1015.6 |
| 20260906071006 | 22 | 51 | 1.6 | 3.2 | 0.00 | 0.00 | 0.00 | 87 | 1015.6 |
| 20260906070507 | 22 | 51 | 1.6 | 4.8 | 0.00 | 0.00 | 0.00 | 87 | 1015.6 |
| 20260906070006 | 22 | 51 | 0.0 | 4.8 | 0.00 | 0.00 | 0.00 | 87 | 1015.6 |
| 20260906065506 | 22 | 51 | 0.0 | 4.8 | 0.00 | 0.00 | 0.00 | 86 | 1015.6 |
| 20260906065006 | 22 | 51 | 0.0 | 4.8 | 0.00 | 0.00 | 0.00 | 86 | 1015.6 |
| 20260906064506 | 22 | 51 | 1.6 | 4.8 | 0.00 | 0.00 | 0.00 | 86 | 1015.6 |
| 20260906064005 | 22 | 51 | 1.6 | 4.8 | 0.00 | 0.00 | 0.00 | 86 | 1015.6 |
| 20260906063506 | 23 | 51 | 1.6 | 4.8 | 0.00 | 0.00 | 0.00 | 85 | 1015.6 |
| 20260906063006 | 23 | 51 | 3.2 | 8.0 | 0.00 | 0.00 | 0.00 | 85 | 1015.6 |
| 20260906062506 | 23 | 13 | 3.2 | 8.0 | 0.00 | 0.00 | 0.00 | 85 | 1015.6 |
| 20260906062007 | 23 | 36 | 1.6 | 4.8 | 0.00 | 0.00 | 0.00 | 85 | 1015.6 |
| 20260906061506 | 23 | 32 | 1.6 | 4.8 | 0.00 | 0.00 | 0.00 | 85 | 1015.6 |
| 20260906061006 | 23 | 43 | 0.0 | 4.8 | 0.00 | 0.00 | 0.00 | 85 | 1015.6 |
| 20260906060507 | 23 | 43 | 1.6 | 4.8 | 0.00 | 0.00 | 0.00 | 84 | 1015.6 |
| 20260906060013 | 23 | 44 | 1.6 | 4.8 | 0.00 | 0.00 | 0.00 | 84 | 1015.6 |
| 20260906055513 | 23 | 44 | 1.6 | 9.7 | 0.00 | 0.00 | 0.00 | 84 | 1015.6 |
| 20260906055013 | 23 | 48 | 3.2 | 9.7 | 0.00 | 0.00 | 0.00 | 84 | 1015.5 |
| 20260906054513 | 23 | 26 | 1.6 | 4.8 | 0.00 | 0.00 | 0.00 | 84 | 1015.5 |
| 20260906054013 | 23 | 26 | 1.6 | 4.8 | 0.00 | 0.00 | 0.00 | 84 | 1015.5 |
| 20260906053513 | 23 | 26 | 1.6 | 4.8 | 0.00 | 0.00 | 0.00 | 84 | 1015.5 |
| 20260906053014 | 23 | 41 | 1.6 | 4.8 | 0.00 | 0.00 | 0.00 | 84 | 1015.5 |
| 20260906052513 | 23 | 44 | 1.6 | 4.8 | 0.00 | 0.00 | 0.00 | 84 | 1015.3 |
| 20260906052012 | 23 | 37 | 1.6 | 4.8 | 0.00 | 0.00 | 0.00 | 84 | 1015.3 |
| 20260906051513 | 23 | 32 | 3.2 | 8.0 | 0.00 | 0.00 | 0.00 | 84 | 1015.2 |
| 20260906051012 | 23 | 32 | 3.2 | 8.0 | 0.00 | 0.00 | 0.00 | 84 | 1015.1 |
| 20260906050513 | 23 | 52 | 1.6 | 11.3 | 0.00 | 0.00 | 0.00 | 84 | 1015.1 |
| 20260906050012 | 23 | 56 | 1.6 | 11.3 | 0.00 | 0.00 | 0.00 | 84 | 1015.1 |
| 20260906045513 | 23 | 40 | 4.8 | 9.7 | 0.00 | 0.00 | 0.00 | 83 | 1015.0 |
| 20260906045012 | 23 | 50 | 1.6 | 9.7 | 0.00 | 0.00 | 0.00 | 84 | 1014.9 |
| 20260906044513 | 23 | 45 | 3.2 | 4.8 | 0.00 | 0.00 | 0.00 | 84 | 1014.9 |
| 20260906044013 | 23 | 52 | 3.2 | 8.0 | 0.00 | 0.00 | 0.00 | 84 | 1014.9 |
| 20260906043514 | 23 | 28 | 1.6 | 8.0 | 0.00 | 0.00 | 0.00 | 84 | 1014.8 |
| 20260906043013 | 23 | 39 | 3.2 | 8.0 | 0.00 | 0.00 | 0.00 | 84 | 1014.8 |
| 20260906042513 | 23 | 32 | 1.6 | 8.0 | 0.00 | 0.00 | 0.00 | 83 | 1014.8 |
| 20260906042013 | 23 | 32 | 3.2 | 4.8 | 0.00 | 0.00 | 0.00 | 83 | 1014.7 |
| 20260906041513 | 23 | 68 | 1.6 | 4.8 | 0.00 | 0.00 | 0.00 | 84 | 1014.7 |
| 20260906041012 | 23 | 63 | 1.6 | 4.8 | 0.00 | 0.00 | 0.00 | 83 | 1014.6 |
| 20260906040513 | 23 | 63 | 3.2 | 4.8 | 0.00 | 0.00 | 0.00 | 83 | 1014.6 |
| 20260906040013 | 23 | 62 | 1.6 | 4.8 | 0.00 | 0.00 | 0.00 | 83 | 1014.6 |
| 20260906035513 | 23 | 76 | 0.0 | 4.8 | 0.00 | 0.00 | 0.00 | 84 | 1014.7 |
| 20260906035013 | 23 | 84 | 3.2 | 4.8 | 0.00 | 0.00 | 0.00 | 83 | 1014.7 |
| 20260906034513 | 23 | 51 | 1.6 | 3.2 | 0.00 | 0.00 | 0.00 | 83 | 1014.7 |
| 20260906034013 | 23 | 49 | 1.6 | 4.8 | 0.00 | 0.00 | 0.00 | 83 | 1014.6 |
| 20260906033513 | 23 | 49 | 1.6 | 4.8 | 0.00 | 0.00 | 0.00 | 83 | 1014.6 |
| 20260906033013 | 23 | 49 | 1.6 | 4.8 | 0.00 | 0.00 | 0.00 | 83 | 1014.6 |
| 20260906032512 | 23 | 49 | 1.6 | 8.0 | 0.00 | 0.00 | 0.00 | 83 | 1014.5 |
| 20260906032013 | 23 | 39 | 1.6 | 8.0 | 0.00 | 0.00 | 0.00 | 83 | 1014.6 |
| 20260906031512 | 23 | 26 | 3.2 | 8.0 | 0.00 | 0.00 | 0.00 | 83 | 1014.6 |
| 20260906031022 | 23 | 33 | 3.2 | 4.8 | 0.00 | 0.00 | 0.00 | 83 | 1014.6 |
| 20260906030513 | 23 | 40 | 1.6 | 11.3 | 0.00 | 0.00 | 0.00 | 83 | 1014.6 |
| 20260906030013 | 23 | 30 | 3.2 | 11.3 | 0.00 | 0.00 | 0.00 | 83 | 1014.6 |
| 20260906025513 | 23 | 15 | 4.8 | 11.3 | 0.00 | 0.00 | 0.00 | 83 | 1014.6 |
| 20260906025013 | 23 | 22 | 4.8 | 9.7 | 0.00 | 0.00 | 0.00 | 83 | 1014.6 |
| 20260906024513 | 23 | 66 | 3.2 | 12.9 | 0.00 | 0.00 | 0.00 | 83 | 1014.6 |
| 20260906024012 | 23 | 36 | 4.8 | 16.1 | 0.00 | 0.00 | 0.00 | 83 | 1014.8 |
| 20260906023513 | 23 | 50 | 4.8 | 16.1 | 0.00 | 0.00 | 0.00 | 83 | 1014.8 |
| 20260906023013 | 23 | 56 | 6.4 | 14.5 | 0.00 | 0.00 | 0.00 | 82 | 1014.8 |
| 20260906022512 | 23 | 47 | 6.4 | 14.5 | 0.00 | 0.00 | 0.00 | 82 | 1014.7 |
| 20260906022012 | 23 | 70 | 4.8 | 14.5 | 0.00 | 0.00 | 0.00 | 81 | 1014.7 |
| 20260906021512 | 23 | 46 | 4.8 | 14.5 | 0.00 | 0.00 | 0.00 | 81 | 1014.7 |
| 20260906021013 | 23 | 43 | 8.0 | 19.3 | 0.00 | 0.00 | 0.00 | 81 | 1014.6 |
| 20260906020514 | 23 | 59 | 6.4 | 19.3 | 0.00 | 0.00 | 0.00 | 80 | 1014.6 |
| 20260906020012 | 23 | 46 | 4.8 | 19.3 | 0.00 | 0.00 | 0.00 | 80 | 1014.5 |
| 20260906015512 | 23 | 53 | 8.0 | 16.1 | 0.00 | 0.00 | 0.00 | 80 | 1014.5 |
| 20260906015012 | 23 | 53 | 8.0 | 16.1 | 0.00 | 0.00 | 0.00 | 80 | 1014.3 |
| 20260906014513 | 23 | 50 | 4.8 | 14.5 | 0.00 | 0.00 | 0.00 | 81 | 1014.3 |
| 20260906014012 | 23 | 50 | 6.4 | 12.9 | 0.00 | 0.00 | 0.00 | 81 | 1014.3 |
| 20260906013513 | 23 | 49 | 3.2 | 12.9 | 0.00 | 0.00 | 0.00 | 82 | 1014.3 |
| 20260906013013 | 23 | 47 | 3.2 | 11.3 | 0.00 | 0.00 | 0.00 | 82 | 1014.3 |
| 20260906012512 | 23 | 40 | 6.4 | 12.9 | 0.00 | 0.00 | 0.00 | 82 | 1014.2 |
| 20260906012013 | 23 | 46 | 4.8 | 14.5 | 0.00 | 0.00 | 0.00 | 81 | 1014.2 |
| 20260906011514 | 23 | 51 | 4.8 | 14.5 | 0.00 | 0.00 | 0.00 | 81 | 1014.2 |
| 20260906011012 | 24 | 48 | 6.4 | 14.5 | 0.00 | 0.00 | 0.00 | 81 | 1014.1 |
| 20260906010513 | 24 | 42 | 4.8 | 16.1 | 0.00 | 0.00 | 0.00 | 81 | 1014.2 |
| 20260906010012 | 24 | 32 | 3.2 | 16.1 | 0.00 | 0.00 | 0.00 | 80 | 1014.0 |
| 20260906005513 | 25 | 44 | 4.8 | 16.1 | 0.00 | 0.00 | 0.00 | 80 | 1014.0 |
| 20260906005013 | 25 | 37 | 4.8 | 14.5 | 0.00 | 0.00 | 0.00 | 79 | 1014.0 |
| 20260906004512 | 25 | 27 | 3.2 | 11.3 | 0.00 | 0.00 | 0.00 | 79 | 1014.0 |
| 20260906004013 | 25 | 41 | 4.8 | 11.3 | 0.00 | 0.00 | 0.00 | 78 | 1013.8 |
| 20260906003513 | 25 | 40 | 3.2 | 11.3 | 0.00 | 0.00 | 0.00 | 78 | 1013.5 |
| 20260906003012 | 25 | 43 | 4.8 | 11.3 | 0.00 | 0.00 | 0.00 | 77 | 1013.5 |
| 20260906002513 | 25 | 34 | 4.8 | 16.1 | 0.00 | 0.00 | 0.00 | 76 | 1013.5 |
| 20260906002013 | 25 | 30 | 4.8 | 16.1 | 0.00 | 0.00 | 0.00 | 76 | 1013.4 |
| 20260906001512 | 26 | 33 | 3.2 | 8.0 | 0.00 | 0.00 | 0.00 | 77 | 1013.4 |
| 20260906001012 | 26 | 53 | 3.2 | 8.0 | 0.00 | 0.00 | 0.00 | 76 | 1013.1 |
| 20260906000513 | 26 | 56 | 3.2 | 8.0 | 0.00 | 0.00 | 0.00 | 76 | 1013.1 |
| 20260906000012 | 26 | 50 | 1.6 | 4.8 | 0.00 | 0.00 | 0.00 | 76 | 1013.1 |
| 20260905235512 | 26 | 35 | 1.6 | 3.2 | 0.00 | 0.00 | 0.00 | 75 | 1013.1 |
| 20260905235013 | 26 | 34 | 1.6 | 8.0 | 0.00 | 0.00 | 0.00 | 75 | 1013.1 |
| 20260905234513 | 26 | 34 | 1.6 | 8.0 | 0.00 | 0.00 | 0.00 | 74 | 1013.1 |
| 20260905234012 | 27 | 20 | 3.2 | 8.0 | 0.00 | 0.00 | 0.00 | 73 | 1013.2 |
| 20260905233513 | 27 | 41 | 1.6 | 4.8 | 0.00 | 0.00 | 0.00 | 74 | 1013.3 |
| 20260905233013 | 27 | 55 | 1.6 | 4.8 | 0.00 | 0.00 | 0.00 | 73 | 1013.3 |
| 20260905232513 | 27 | 55 | 1.6 | 12.9 | 0.00 | 0.00 | 0.00 | 73 | 1013.1 |
| 20260905232013 | 27 | 55 | 1.6 | 12.9 | 0.00 | 0.00 | 0.00 | 73 | 1013.1 |
| 20260905231513 | 27 | 36 | 3.2 | 11.3 | 0.00 | 0.00 | 0.00 | 72 | 1013.2 |
| 20260905231012 | 27 | 52 | 4.8 | 11.3 | 0.00 | 0.00 | 0.00 | 71 | 1013.2 |
| 20260905230512 | 27 | 56 | 3.2 | 11.3 | 0.00 | 0.00 | 0.00 | 72 | 1013.2 |
| 20260905230013 | 27 | 36 | 3.2 | 11.3 | 0.00 | 0.00 | 0.00 | 74 | 1013.0 |
| 20260905225512 | 27 | 52 | 1.6 | 4.8 | 0.00 | 0.00 | 0.00 | 74 | 1013.0 |
| 20260905225012 | 27 | 68 | 1.6 | 19.3 | 0.00 | 0.00 | 0.00 | 74 | 1013.0 |
| 20260905224512 | 27 | 40 | 3.2 | 19.3 | 0.00 | 0.00 | 0.00 | 72 | 1012.8 |
| 20260905224013 | 27 | 33 | 3.2 | 11.3 | 0.00 | 0.00 | 0.00 | 72 | 1012.8 |
| 20260905223513 | 27 | 37 | 3.2 | 11.3 | 0.00 | 0.00 | 0.00 | 73 | 1012.8 |
| 20260905223013 | 27 | 42 | 4.8 | 16.1 | 0.00 | 0.00 | 0.00 | 72 | 1013.0 |
| 20260905222513 | 28 | 60 | 4.8 | 16.1 | 0.00 | 0.00 | 0.00 | 72 | 1013.1 |
| 20260905222012 | 27 | 54 | 4.8 | 14.5 | 0.00 | 0.00 | 0.00 | 73 | 1012.9 |
| 20260905221512 | 28 | 40 | 6.4 | 16.1 | 0.00 | 0.00 | 0.00 | 71 | 1012.9 |
| 20260905221013 | 28 | 42 | 6.4 | 16.1 | 0.00 | 0.00 | 0.00 | 71 | 1012.8 |
| 20260905220513 | 28 | 56 | 6.4 | 16.1 | 0.00 | 0.00 | 0.00 | 71 | 1012.9 |
| 20260905220012 | 28 | 32 | 4.8 | 20.9 | 0.00 | 0.00 | 0.00 | 70 | 1012.8 |
| 20260905215512 | 29 | 57 | 8.0 | 20.9 | 0.00 | 0.00 | 0.00 | 70 | 1012.8 |
| 20260905215012 | 30 | 37 | 8.0 | 16.1 | 0.00 | 0.00 | 0.00 | 68 | 1012.7 |
| 20260905214513 | 30 | 24 | 4.8 | 16.1 | 0.00 | 0.00 | 0.00 | 69 | 1012.7 |
| 20260905214013 | 30 | 16 | 6.4 | 16.1 | 0.00 | 0.00 | 0.00 | 69 | 1012.7 |
| 20260905213512 | 30 | 359 | 4.8 | 16.1 | 0.00 | 0.00 | 0.00 | 68 | 1012.5 |
| 20260905213012 | 30 | 356 | 4.8 | 19.3 | 0.00 | 0.00 | 0.00 | 68 | 1012.5 |
| 20260905212512 | 30 | 26 | 6.4 | 19.3 | 0.00 | 0.00 | 0.00 | 68 | 1012.5 |
| 20260905212012 | 30 | 40 | 8.0 | 16.1 | 0.00 | 0.00 | 0.00 | 68 | 1012.4 |
| 20260905211512 | 30 | 12 | 4.8 | 16.1 | 0.00 | 0.00 | 0.00 | 69 | 1012.4 |
| 20260905211012 | 30 | 66 | 4.8 | 11.3 | 0.00 | 0.00 | 0.00 | 70 | 1012.4 |
| 20260905210512 | 30 | 30 | 4.8 | 16.1 | 0.00 | 0.00 | 0.00 | 71 | 1012.4 |
| 20260905210012 | 29 | 32 | 3.2 | 16.1 | 0.00 | 0.00 | 0.00 | 70 | 1012.4 |
| 20260905205513 | 29 | 28 | 1.6 | 12.9 | 0.00 | 0.00 | 0.00 | 72 | 1012.5 |
| 20260905205012 | 29 | 33 | 4.8 | 12.9 | 0.00 | 0.00 | 0.00 | 71 | 1012.4 |
| 20260905204512 | 30 | 60 | 3.2 | 12.9 | 0.00 | 0.00 | 0.00 | 70 | 1012.4 |
| 20260905204012 | 30 | 49 | 6.4 | 12.9 | 0.00 | 0.00 | 0.00 | 70 | 1012.4 |
| 20260905203512 | 30 | 1 | 4.8 | 14.5 | 0.00 | 0.00 | 0.00 | 67 | 1012.6 |
| 20260905203013 | 31 | 71 | 4.8 | 14.5 | 0.00 | 0.00 | 0.00 | 68 | 1012.6 |
| 20260905202513 | 31 | 49 | 4.8 | 16.1 | 0.00 | 0.00 | 0.00 | 67 | 1012.5 |
| 20260905202013 | 31 | 29 | 4.8 | 16.1 | 0.00 | 0.00 | 0.00 | 65 | 1012.5 |
| 20260905201512 | 31 | 313 | 4.8 | 16.1 | 0.00 | 0.00 | 0.00 | 65 | 1012.6 |
| 20260905201013 | 32 | 35 | 8.0 | 12.9 | 0.00 | 0.00 | 0.00 | 65 | 1012.3 |
| 20260905200512 | 32 | 349 | 3.2 | 14.5 | 0.00 | 0.00 | 0.00 | 64 | 1012.3 |
| 20260905200012 | 32 | 339 | 4.8 | 14.5 | 0.00 | 0.00 | 0.00 | 65 | 1012.3 |
| 20260905195512 | 32 | 31 | 4.8 | 12.9 | 0.00 | 0.00 | 0.00 | 66 | 1012.3 |
| 20260905195013 | 32 | 63 | 4.8 | 12.9 | 0.00 | 0.00 | 0.00 | 68 | 1012.4 |
| 20260905194512 | 31 | 43 | 3.2 | 12.9 | 0.00 | 0.00 | 0.00 | 68 | 1012.4 |
| 20260905194013 | 31 | 39 | 4.8 | 12.9 | 0.00 | 0.00 | 0.00 | 68 | 1012.4 |
| 20260905193512 | 31 | 26 | 3.2 | 12.9 | 0.00 | 0.00 | 0.00 | 67 | 1012.4 |
| 20260905193013 | 32 | 38 | 1.6 | 8.0 | 0.00 | 0.00 | 0.00 | 66 | 1012.4 |
| 20260905192513 | 32 | 352 | 3.2 | 14.5 | 0.00 | 0.00 | 0.00 | 64 | 1012.4 |
| 20260905192013 | 32 | 1 | 4.8 | 14.5 | 0.00 | 0.00 | 0.00 | 64 | 1012.4 |
| 20260905191512 | 32 | 303 | 3.2 | 11.3 | 0.00 | 0.00 | 0.00 | 64 | 1012.5 |
| 20260905191013 | 32 | 1 | 4.8 | 14.5 | 0.00 | 0.00 | 0.00 | 62 | 1012.6 |
| 20260905190523 | 32 | 16 | 3.2 | 14.5 | 0.00 | 0.00 | 0.00 | 64 | 1012.6 |
| 20260905190012 | 32 | 352 | 3.2 | 12.9 | 0.00 | 0.00 | 0.00 | 65 | 1012.6 |
| 20260905185512 | 32 | 7 | 3.2 | 11.3 | 0.00 | 0.00 | 0.00 | 65 | 1012.7 |
| 20260905185013 | 32 | 356 | 3.2 | 12.9 | 0.00 | 0.00 | 0.00 | 66 | 1012.7 |
| 20260905184513 | 32 | 15 | 4.8 | 12.9 | 0.00 | 0.00 | 0.00 | 66 | 1012.7 |
| 20260905184013 | 32 | 6 | 4.8 | 11.3 | 0.00 | 0.00 | 0.00 | 67 | 1012.7 |
| 20260905183514 | 32 | 19 | 3.2 | 8.0 | 0.00 | 0.00 | 0.00 | 66 | 1012.7 |
| 20260905183012 | 32 | 0 | 3.2 | 8.0 | 0.00 | 0.00 | 0.00 | 68 | 1012.8 |
| 20260905182512 | 32 | 351 | 1.6 | 12.9 | 0.00 | 0.00 | 0.00 | 69 | 1012.8 |
| 20260905182013 | 31 | 355 | 4.8 | 12.9 | 0.00 | 0.00 | 0.00 | 68 | 1012.8 |
| 20260905181513 | 31 | 357 | 3.2 | 8.0 | 0.00 | 0.00 | 0.00 | 70 | 1012.8 |
| 20260905181012 | 31 | 32 | 3.2 | 8.0 | 0.00 | 0.00 | 0.00 | 70 | 1012.8 |
| 20260905180512 | 31 | 44 | 0.0 | 8.0 | 0.00 | 0.00 | 0.00 | 70 | 1012.8 |
| 20260905180012 | 31 | 25 | 4.8 | 8.0 | 0.00 | 0.00 | 0.00 | 69 | 1012.8 |
| 20260905175512 | 31 | 57 | 1.6 | 9.7 | 0.00 | 0.00 | 0.00 | 70 | 1012.7 |
| 20260905175013 | 31 | 43 | 4.8 | 9.7 | 0.00 | 0.00 | 0.00 | 71 | 1012.8 |
| 20260905174513 | 31 | 340 | 3.2 | 4.8 | 0.00 | 0.00 | 0.00 | 70 | 1012.8 |
| 20260905174013 | 31 | 22 | 1.6 | 11.3 | 0.00 | 0.00 | 0.00 | 71 | 1012.9 |
| 20260905173512 | 31 | 317 | 3.2 | 11.3 | 0.00 | 0.00 | 0.00 | 70 | 1012.9 |
| 20260905173013 | 31 | 352 | 4.8 | 9.7 | 0.00 | 0.00 | 0.00 | 72 | 1012.9 |
| 20260905172512 | 31 | 36 | 4.8 | 9.7 | 0.00 | 0.00 | 0.00 | 73 | 1012.9 |
| 20260905172013 | 31 | 21 | 3.2 | 9.7 | 0.00 | 0.00 | 0.00 | 72 | 1012.8 |
| 20260905171512 | 30 | 27 | 3.2 | 12.9 | 0.00 | 0.00 | 0.00 | 73 | 1013.0 |
| 20260905171013 | 30 | 78 | 3.2 | 12.9 | 0.00 | 0.00 | 0.00 | 73 | 1013.1 |
| 20260905170513 | 30 | 38 | 3.2 | 9.7 | 0.00 | 0.00 | 0.00 | 76 | 1013.3 |
| 20260905170013 | 30 | 31 | 1.6 | 9.7 | 0.00 | 0.00 | 0.00 | 76 | 1013.3 |
| 20260905165513 | 30 | 41 | 3.2 | 9.7 | 0.00 | 0.00 | 0.00 | 75 | 1013.2 |
| 20260905165013 | 30 | 13 | 1.6 | 8.0 | 0.00 | 0.00 | 0.00 | 75 | 1013.3 |
| 20260905164512 | 30 | 42 | 3.2 | 11.3 | 0.00 | 0.00 | 0.00 | 75 | 1013.3 |
| 20260905164012 | 30 | 31 | 3.2 | 11.3 | 0.00 | 0.00 | 0.00 | 74 | 1013.2 |
| 20260905163513 | 30 | 40 | 3.2 | 11.3 | 0.00 | 0.00 | 0.00 | 76 | 1013.2 |
| 20260905163013 | 30 | 24 | 3.2 | 11.3 | 0.00 | 0.00 | 0.00 | 76 | 1013.2 |
| 20260905162512 | 30 | 28 | 3.2 | 9.7 | 0.00 | 0.00 | 0.00 | 76 | 1013.4 |
| 20260905162012 | 30 | 31 | 3.2 | 12.9 | 0.00 | 0.00 | 0.00 | 76 | 1013.4 |
| 20260905161514 | 30 | 29 | 4.8 | 12.9 | 0.00 | 0.00 | 0.00 | 77 | 1013.4 |
| 20260905161013 | 30 | 35 | 6.4 | 12.9 | 0.00 | 0.00 | 0.00 | 76 | 1013.2 |
| 20260905160513 | 30 | 36 | 6.4 | 12.9 | 0.00 | 0.00 | 0.00 | 75 | 1013.2 |
| 20260905160021 | 30 | 52 | 4.8 | 11.3 | 0.00 | 0.00 | 0.00 | 77 | 1013.0 |
| 20260905155513 | 30 | 45 | 4.8 | 11.3 | 0.00 | 0.00 | 0.00 | 78 | 1012.9 |
| 20260905155012 | 30 | 56 | 3.2 | 8.0 | 0.00 | 0.00 | 0.00 | 80 | 1012.9 |
| 20260905154513 | 30 | 335 | 3.2 | 12.9 | 0.00 | 0.00 | 0.00 | 79 | 1012.8 |
| 20260905154013 | 29 | 13 | 4.8 | 12.9 | 0.00 | 0.00 | 0.00 | 79 | 1012.9 |
| 20260905153513 | 29 | 67 | 4.8 | 8.0 | 0.00 | 0.00 | 0.00 | 80 | 1012.9 |
| 20260905153012 | 29 | 45 | 1.6 | 8.0 | 0.00 | 0.00 | 0.00 | 79 | 1012.9 |
| 20260905152512 | 29 | 35 | 3.2 | 8.0 | 0.00 | 0.00 | 0.00 | 80 | 1012.9 |
| 20260905152012 | 29 | 58 | 1.6 | 12.9 | 0.00 | 0.00 | 0.00 | 79 | 1012.8 |
| 20260905151512 | 29 | 66 | 3.2 | 14.5 | 0.00 | 0.00 | 0.00 | 79 | 1012.8 |
| 20260905151013 | 29 | 28 | 3.2 | 14.5 | 0.00 | 0.00 | 0.00 | 79 | 1012.6 |
| 20260905150512 | 29 | 37 | 4.8 | 14.5 | 0.00 | 0.00 | 0.00 | 81 | 1012.6 |
| 20260905150013 | 29 | 59 | 3.2 | 8.0 | 0.00 | 0.00 | 0.00 | 81 | 1012.6 |
| 20260905145512 | 28 | 30 | 3.2 | 9.7 | 0.00 | 0.00 | 0.00 | 81 | 1012.6 |
| 20260905145013 | 28 | 41 | 3.2 | 11.3 | 0.00 | 0.00 | 0.00 | 83 | 1012.6 |
| 20260905144513 | 28 | 46 | 3.2 | 11.3 | 0.00 | 0.00 | 0.00 | 83 | 1012.6 |
| 20260905144013 | 28 | 42 | 3.2 | 8.0 | 0.00 | 0.00 | 0.00 | 84 | 1012.5 |
| 20260905143512 | 28 | 49 | 3.2 | 4.8 | 0.00 | 0.00 | 0.00 | 84 | 1012.5 |
| 20260905143013 | 28 | 42 | 1.6 | 4.8 | 0.00 | 0.00 | 0.00 | 84 | 1012.5 |
| 20260905142512 | 28 | 32 | 3.2 | 4.8 | 0.00 | 0.00 | 0.00 | 84 | 1012.5 |
| 20260905142012 | 28 | 14 | 3.2 | 4.8 | 0.00 | 0.00 | 0.00 | 85 | 1012.4 |
| 20260905141512 | 28 | 23 | 1.6 | 4.8 | 0.00 | 0.00 | 0.00 | 85 | 1012.4 |
| 20260905141013 | 27 | 22 | 1.6 | 4.8 | 0.00 | 0.00 | 0.00 | 86 | 1012.4 |
| 20260905140512 | 27 | 19 | 1.6 | 4.8 | 0.00 | 0.00 | 0.00 | 86 | 1012.3 |
| 20260905140012 | 27 | 11 | 1.6 | 4.8 | 0.00 | 0.00 | 0.00 | 86 | 1012.3 |
| 20260905135512 | 27 | 19 | 3.2 | 4.8 | 0.00 | 0.00 | 0.00 | 87 | 1012.3 |
| 20260905135013 | 27 | 22 | 3.2 | 8.0 | 0.00 | 0.00 | 0.00 | 87 | 1012.6 |
| 20260905134513 | 27 | 311 | 1.6 | 8.0 | 0.00 | 0.00 | 0.00 | 88 | 1012.6 |
| 20260905134012 | 27 | 25 | 1.6 | 4.8 | 0.00 | 0.00 | 0.00 | 88 | 1012.7 |
| 20260905133513 | 26 | 326 | 1.6 | 8.0 | 0.00 | 0.00 | 0.00 | 89 | 1012.8 |
| 20260905133012 | 26 | 311 | 1.6 | 8.0 | 0.00 | 0.00 | 0.00 | 90 | 1012.7 |
| 20260905132512 | 26 | 271 | 0.0 | 8.0 | 0.00 | 0.00 | 0.00 | 90 | 1012.7 |
| 20260905132012 | 26 | 287 | 4.8 | 8.0 | 0.00 | 0.00 | 0.00 | 91 | 1012.7 |
| 20260905131513 | 26 | 305 | 3.2 | 8.0 | 0.00 | 0.00 | 0.00 | 92 | 1012.2 |
| 20260905131012 | 26 | 298 | 4.8 | 8.0 | 0.00 | 0.00 | 0.00 | 92 | 1012.2 |
| 20260905130513 | 25 | 248 | 1.6 | 4.8 | 0.00 | 0.00 | 0.00 | 93 | 1012.2 |
| 20260905130012 | 25 | 233 | 3.2 | 4.8 | 0.00 | 0.00 | 0.00 | 94 | 1012.2 |
| 20260905125515 | 25 | 231 | 1.6 | 4.8 | 0.00 | 0.00 | 0.00 | 94 | 1012.1 |
| 20260905125012 | 25 | 188 | 1.6 | 4.8 | 0.00 | 0.00 | 0.00 | 95 | 1011.6 |
| 20260905124512 | 25 | 187 | 1.6 | 4.8 | 0.00 | 0.00 | 0.00 | 95 | 1011.6 |
| 20260905124012 | 25 | 181 | 1.6 | 4.8 | 0.00 | 0.00 | 0.00 | 95 | 1011.6 |
| 20260905123512 | 25 | 181 | 1.6 | 4.8 | 0.00 | 0.00 | 0.00 | 96 | 1011.6 |
| 20260905123013 | 24 | 225 | 1.6 | 3.2 | 0.00 | 0.00 | 0.00 | 96 | 1011.7 |
| 20260905122513 | 24 | 225 | 0.0 | 3.2 | 0.00 | 0.00 | 0.00 | 96 | 1011.7 |
| 20260905122013 | 24 | 225 | 0.0 | 0.0 | 0.00 | 0.00 | 0.00 | 96 | 1011.7 |